Weather History for Kalispell, MT

Change the Weather History Date:

Sunday, June 23, 2013

  Actual Average Record
Temperature  
Mean Temperature 56 °F 60 °F  
Max Temperature 72 °F 74 °F 93 °F (1941)
Min Temperature 39 °F 45 °F 33 °F (1997)
Degree Days  
Heating Degree Days 9 6  
Month to date heating degree days 172 178  
Since 1 June heating degree days 172 178  
Since 1 July heating degree days 7438 8001  
Cooling Degree Days 0 1  
Month to date cooling degree days 3 4  
Year to date cooling degree days 3 7  
Since 1 June cooling degree days 3 4  
Growing Degree Days 5 (Base 50)    
Moisture  
Dew Point 45 °F    
Average Humidity 69    
Maximum Humidity 100    
Minimum Humidity 38    
Precipitation  
Precipitation T in 0.08 in 0.77 in (2012)
Month to date precipitation 2.30 2.02  
Year to date precipitation 8.60 8.63  
Snow  
Snow 0.00 in - - ()
Month to date snowfall 0.0  
Year to date snowfall 10.1  
Since 1 July snowfall 18.9  
Snow Depth 0.00 in    
Sea Level Pressure  
Sea Level Pressure 29.88 in    
Wind  
Wind Speed 3 mph (SSE)    
Max Wind Speed 12 mph    
Max Gust Speed 18 mph    
Visibility 6 miles    
Events Fog    
T = Trace of Precipitation, MM = Missing Value Source: NWS Daily Summary

Daily Weather History Graph

Daily Weather History Graph

Search for Another Location

Airport:

Trip Planner

Search our weather history database for the weather conditions in past years. The results will help you decide how hot, cold, wet, or windy it might be!

Date:

Astronomy

Jun. 23, 2013 Rise Set
Actual Time 5:36 AM MDT 9:42 PM MDT
Civil Twilight 4:54 AM MDT 10:23 PM MDT
Nautical Twilight 3:56 AM MDT 11:22 PM MDT
Astronomical Twilight 2:07 AM MDT 1:10 AM MDT
Moon 9:49 PM MDT (6/23) 6:04 AM MDT (6/23)
Length of Visible Light 17h 28m
Length of Day
16h 05m
Full, 100% of the Moon is Illuminated
Jun 23
Full
Jun 29
Last Quarter
Jul 8
New
Jul 15
First Quarter
Jul 22
Full

Hourly Weather History & Observations

Time (MDT) Temp. Windchill Dew Point Humidity Pressure Visibility Wind Dir Wind Speed Gust Speed Precip Events Conditions
12:41 AM 46.4 °F - 46.4 °F 100% 29.98 in 10.0 mi North - - N/A   Clear
12:55 AM 48.0 °F - 46.9 °F 96% 29.97 in 10.0 mi North - - N/A   Clear
1:16 AM 46.4 °F - 46.4 °F 100% 29.97 in 2.5 mi North - - N/A   Clear
1:24 AM 46.4 °F - 46.4 °F 100% 29.97 in 10.0 mi North - - N/A   Clear
1:55 AM 46.9 °F - 45.0 °F 93% 29.95 in 10.0 mi Calm Calm - N/A   Clear
2:16 AM 42.8 °F 39.3 °F 42.8 °F 100% 29.95 in 2.0 mi North 5.8 mph - N/A   Partly Cloudy
2:25 AM 44.6 °F 43.1 °F 44.6 °F 100% 29.95 in 6.0 mi North 3.5 mph - N/A   Partly Cloudy
2:32 AM 44.6 °F - 44.6 °F 100% 29.95 in 1.5 mi Calm Calm - N/A   Partly Cloudy
2:37 AM 42.8 °F - 42.8 °F 100% 29.95 in 1.0 mi Calm Calm - N/A   Mist
2:40 AM 42.8 °F - 42.8 °F 100% 29.95 in 0.8 mi Calm Calm - N/A   Mist
2:52 AM 42.8 °F - 42.8 °F 100% 29.94 in 1.2 mi Calm Calm - N/A   Partly Cloudy
2:55 AM 44.1 °F - 43.0 °F 96% 29.94 in 4.0 mi Calm Calm - N/A   Partly Cloudy
3:12 AM 42.8 °F 40.1 °F 42.8 °F 100% 29.94 in 1.8 mi SW 4.6 mph - N/A   Partly Cloudy
3:22 AM 42.8 °F 41.1 °F 42.8 °F 100% 29.95 in 4.0 mi WNW 3.5 mph - N/A   Clear
3:55 AM 43.0 °F - 43.0 °F 100% 29.94 in 10.0 mi Calm Calm - N/A   Clear
4:04 AM 44.6 °F - 42.8 °F 93% 29.94 in 1.5 mi Calm Calm - N/A   Clear
4:11 AM 42.8 °F - 42.8 °F 100% 29.94 in 1.0 mi Calm Calm - N/A   Clear
4:37 AM 41.0 °F - 39.2 °F 93% 29.94 in 0.5 mi Calm Calm - N/A Fog Fog
4:46 AM 41.0 °F 39.0 °F 41.0 °F 100% 29.94 in 0.5 mi NE 3.5 mph - N/A Fog Fog
4:55 AM 39.9 °F - 39.9 °F 100% 29.94 in 0.5 mi Calm Calm - N/A Fog Fog
5:30 AM 41.0 °F - 39.2 °F 93% 29.93 in 0.2 mi Calm Calm - N/A Fog Fog
5:55 AM 42.1 °F - 41.0 °F 96% 29.93 in 0.2 mi Calm Calm - N/A Fog Fog
6:22 AM 41.0 °F - 39.2 °F 93% 29.92 in 1.0 mi Calm Calm - N/A   Mist
6:26 AM 41.0 °F - 41.0 °F 100% 29.92 in 2.0 mi Calm Calm - N/A   Mostly Cloudy
6:34 AM 42.8 °F - 41.0 °F 93% 29.92 in 3.0 mi Calm Calm - N/A   Mostly Cloudy
6:41 AM 42.8 °F - 42.8 °F 100% 29.92 in 7.0 mi Calm Calm - N/A   Partly Cloudy
6:55 AM 45.0 °F - 44.1 °F 97% 29.92 in 10.0 mi Calm Calm - N/A   Partly Cloudy
7:55 AM 51.1 °F - 46.0 °F 83% 29.92 in 10.0 mi Calm Calm - N/A   Clear
8:55 AM 55.0 °F - 48.0 °F 77% 29.90 in 10.0 mi Calm Calm - N/A   Clear
9:55 AM 57.0 °F - 48.0 °F 72% 29.88 in 10.0 mi Calm Calm - N/A   Clear
10:55 AM 61.0 °F - 48.0 °F 62% 29.86 in 10.0 mi South 4.6 mph - N/A   Clear
11:55 AM 64.0 °F - 45.0 °F 50% 29.83 in 10.0 mi SE 9.2 mph - N/A   Scattered Clouds
12:55 PM 66.9 °F - 46.0 °F 47% 29.82 in 10.0 mi South 6.9 mph - N/A   Clear
1:55 PM 68.0 °F - 46.0 °F 45% 29.79 in 10.0 mi SE 6.9 mph - N/A   Scattered Clouds
2:55 PM 70.0 °F - 45.0 °F 41% 29.79 in 10.0 mi South 8.1 mph - N/A   Scattered Clouds
3:55 PM 70.0 °F - 45.0 °F 41% 29.77 in 10.0 mi SSE 8.1 mph - N/A   Clear
4:55 PM 71.1 °F - 44.1 °F 38% 29.75 in 10.0 mi Variable 3.5 mph - N/A   Clear
5:55 PM 70.0 °F - 46.0 °F 42% 29.74 in 10.0 mi Variable 5.8 mph - N/A   Clear
6:55 PM 70.0 °F - 46.0 °F 42% 29.72 in 10.0 mi SE 3.5 mph - N/A   Clear
7:55 PM 70.0 °F - 44.1 °F 39% 29.70 in 10.0 mi Calm Calm - N/A   Clear
8:55 PM 66.0 °F - 50.0 °F 56% 29.69 in 10.0 mi Calm Calm - N/A   Clear
9:55 PM 61.0 °F - 52.0 °F 72% 29.70 in 10.0 mi Calm Calm - N/A   Clear
10:55 PM 61.0 °F - 53.1 °F 75% 29.69 in 10.0 mi Calm Calm - N/A   Overcast
11:55 PM 57.9 °F - 54.0 °F 87% 29.69 in 10.0 mi Calm Calm - N/A   Overcast